This demonstration page uses our WeatherBlox Daily Observations layout. Learn more.

Left ArrowRight Arrow

39.51506, -84.39828

Hourly Observations for August 28, 2021

Temp ( °F °C ) Dew Point ( °F °C ) Humidity (%) Winds ( mph kmh ) Pressure ( in mb ) Visibility ( mi km ) Precip ( " mm )
12:15 am 00:15 Clear 72 22 N/A N/A N N/A 30.13 1020 10 16 N/A
12:35 am 00:35 Clear 73 23 N/A N/A S 5 7 30.13 1020 10 16 N/A
12:55 am 00:55 Clear 72 22 N/A N/A N N/A 30.13 1020 10 16 N/A
1:15 am 01:15 Clear 72 22 N/A N/A N N/A 30.13 1020 10 16 N/A
1:35 am 01:35 Clear 72 22 N/A N/A S 5 7 30.13 1020 10 16 N/A
1:55 am 01:55 Hazy 72 22 N/A N/A W 3 6 30.13 1020 7 11 N/A
2:15 am 02:15 Clear 72 22 N/A N/A N N/A 30.13 1020 7 11 N/A
2:35 am 02:35 Clear 72 22 N/A N/A N N/A 30.13 1020 10 16 N/A
2:55 am 02:55 Clear 72 22 N/A N/A N N/A 30.13 1020 10 16 N/A
3:15 am 03:15 Hazy 72 22 N/A N/A N N/A 30.13 1020 7 11 N/A
3:35 am 03:35 Hazy 70 21 N/A N/A N N/A 30.14 1021 7 11 N/A
3:55 am 03:55 Hazy 70 21 N/A N/A N N/A 30.13 1020 5 8 N/A
4:15 am 04:15 Hazy 70 21 N/A N/A N 3 6 30.14 1021 5 8 N/A
4:35 am 04:35 Hazy 70 21 N/A N/A N N/A 30.15 1021 7 11 N/A
4:55 am 04:55 Clear 70 21 N/A N/A N N/A 30.15 1021 7 11 N/A
5:15 am 05:15 Clear 70 21 N/A N/A N N/A 30.15 1021 7 11 N/A
5:35 am 05:35 Clear 70 21 N/A N/A N N/A 30.15 1021 10 16 N/A
5:55 am 05:55 Hazy 70 21 N/A N/A N N/A 30.15 1021 7 11 N/A
6:15 am 06:15 Clear 70 21 N/A N/A N N/A 30.15 1021 7 11 N/A
6:35 am 06:35 Clear 70 21 N/A N/A N N/A 30.16 1021 7 11 N/A
6:55 am 06:55 Clear 70 21 N/A N/A N N/A 30.16 1021 7 11 N/A
7:35 am 07:35 Sunny 70 21 N/A N/A N N/A 30.18 1022 7 11 N/A
7:55 am 07:55 Hazy 72 22 N/A N/A N N/A 30.18 1022 7 11 N/A
8:15 am 08:15 Hazy 72 22 N/A N/A N N/A 30.18 1022 7 11 N/A
8:35 am 08:35 Hazy 72 22 N/A N/A N N/A 30.19 1022 7 11 N/A
8:55 am 08:55 Sunny 73 23 N/A N/A N N/A 30.19 1022 7 11 N/A
9:15 am 09:15 Sunny 73 23 N/A N/A N N/A 30.20 1023 7 11 N/A
9:35 am 09:35 Sunny 73 23 N/A N/A N N/A 30.20 1023 7 11 N/A
9:55 am 09:55 Sunny 73 23 N/A N/A N N/A 30.20 1023 7 11 N/A
10:15 am 10:15 Sunny 76 24.5 74 23.3 93 93 SSW 6 9 30.19 1022 10 16 N/A
10:35 am 10:35 Sunny 76 24.7 74 23.5 93 93 SW 5 7 30.19 1022 10 16 N/A
10:55 am 10:55 Sunny 78 25.3 75 23.8 91 91 S 6 9 30.19 1022 10 16 N/A
11:15 am 11:15 Sunny 79 26.3 75 23.9 87 87 S 6 9 30.19 1022 10 16 N/A
11:35 am 11:35 Sunny 81 27 74 23.2 80 80 SW 6 9 30.19 1022 10 16 N/A
11:55 am 11:55 Sunny 82 27.7 75 23.9 80 80 SW 5 7 30.18 1022 10 16 N/A
12:15 pm 12:15 Sunny 84 28.7 76 24.3 77 77 WSW 5 7 30.17 1022 10 16 N/A
12:35 pm 12:35 Sunny 85 29.3 76 24.2 74 74 SW 6 9 30.17 1022 10 16 N/A
12:55 pm 12:55 Sunny 86 29.8 74 23.6 69 69 SSW 3 6 30.16 1021 10 16 N/A
1:15 pm 13:15 Sunny 86 30.1 74 23.6 68 68 SW 7 11 30.16 1021 10 16 N/A
1:35 pm 13:35 Partly Cloudy 86 30.2 74 23.6 68 68 N N/A 30.15 1021 10 16 N/A
1:55 pm 13:55 Partly Cloudy 87 30.7 74 23.5 65 65 SW 6 9 30.15 1021 10 16 N/A
2:15 pm 14:15 Partly Cloudy 88 30.9 73 22.8 62 62 SSW 3 6 30.14 1021 10 16 N/A
2:35 pm 14:35 Sunny 88 31.3 73 22.6 60 60 W 6 9 30.14 1021 10 16 N/A
2:55 pm 14:55 Sunny 89 31.7 73 22.6 59 59 SW 8 13 30.13 1020 10 16 N/A
3:15 pm 15:15 Sunny 88 31.3 73 22.8 61 61 W 5 7 30.12 1020 10 16 N/A
3:35 pm 15:35 Sunny 89 31.7 73 23 60 60 SSW 5 7 30.12 1020 10 16 N/A
3:55 pm 15:55 Partly Cloudy 90 32.1 72 22.3 56 56 S 6 9 30.11 1020 10 16 N/A
4:15 pm 16:15 Sunny 90 32.4 71 21.6 53 53 SW 8 13 30.11 1020 10 16 N/A
4:35 pm 16:35 Partly Cloudy 90 32.3 73 22.8 57 57 WNW 7 11 30.10 1019 10 16 N/A
4:55 pm 16:55 Partly Cloudy 90 32.4 72 22.2 55 55 WSW 3 6 30.10 1019 10 16 N/A
5:15 pm 17:15 Sunny 91 32.5 72 22.1 54 54 W 5 7 30.10 1019 10 16 N/A
5:35 pm 17:35 Sunny 90 32.4 72 22.1 55 55 SW 5 7 30.10 1019 10 16 N/A
5:55 pm 17:55 Sunny 90 32.2 71 21.8 54 54 WSW 3 6 30.10 1019 10 16 N/A
6:15 pm 18:15 Sunny 90 32.1 72 22.1 55 55 S 5 7 30.09 1019 10 16 N/A
6:35 pm 18:35 Sunny 89 31.9 72 22.1 56 56 WSW 3 6 30.09 1019 10 16 N/A
6:55 pm 18:55 Sunny 89 31.7 72 22.2 57 57 W 3 6 30.09 1019 10 16 N/A
7:15 pm 19:15 Partly Cloudy 88 31.3 74 23.2 62 62 W 3 6 30.09 1019 10 16 N/A
7:35 pm 19:35 Mostly Cloudy 87 30.3 78 25.5 76 76 W 3 6 30.09 1019 10 16 N/A
7:55 pm 19:55 Mostly Cloudy 85 29.7 70 21.1 60 60 S 7 11 30.10 1019 10 16 N/A
8:15 pm 20:15 Partly Cloudy 82 28 73 22.5 72 72 N N/A 30.11 1020 10 16 N/A
8:35 pm 20:35 Clear 81 27.4 72 22.4 74 74 N N/A 30.12 1020 10 16 N/A
8:55 pm 20:55 Clear 79 26.3 75 23.9 87 87 N N/A 30.12 1020 10 16 N/A
9:15 pm 21:15 Clear 77 25.1 76 24.4 96 96 N N/A 30.12 1020 10 16 N/A
9:35 pm 21:35 Clear 77 25 76 24.5 97 97 N N/A 30.12 1020 10 16 N/A
9:55 pm 21:55 Partly Cloudy 76 24.6 76 24.4 99 99 N 3 6 30.12 1020 10 16 N/A
10:15 pm 22:15 Partly Cloudy 75 24 75 24 100 100 N 3 6 30.13 1020 10 16 N/A
10:35 pm 22:35 Mostly Cloudy 75 24 N/A N/A N 3 6 30.13 1020 10 16 N/A
10:55 pm 22:55 Cloudy 75 24 N/A N/A N N/A 30.14 1020 10 16 N/A
11:15 pm 23:15 Mostly Cloudy 75 24 N/A N/A N N/A 30.14 1020 10 16 N/A
11:35 pm 23:35 Mostly Cloudy 73 23 N/A N/A N N/A 30.15 1021 10 16 N/A
11:55 pm 23:55 Partly Cloudy 73 23 N/A N/A N N/A 30.15 1021 10 16 N/A

Powered by AerisWeather